Wind_Speed
4 4 5 5 6 6 7 8 8 9 10 11 11 11 10 10 10 10 10 9 9 9 9 9 9 9 9 9 8 8 8 8 8 8 8 8 7 7 7 7 7 8 9
3 4 6 6 6 6 7 8 9 10 10 11 11 11 10 10 10 10 10 10 9 9 9 9 9 9 9 8 8 8 7 7 8 8 8 7 8 7 7 7 7 8 9
4 4 5 5 6 7 7 8 8 9 10 11 11 11 10 10 10 10 10 10 9 9 9 9 9 9 9 8 8 8 7 7 7 7 7 7 7 6 7 7 7 8 8
4 4 5 6 6 7 6 7 9 9 10 11 11 10 10 10 9 9 9 9 9 9 8 9 9 9 8 8 8 7 7 7 7 7 6 6 6 6 6 6 6 6 7
3 5 6 6 6 5 6 6 8 8 9 9 9 9 9 9 9 9 9 9 9 8 8 8 8 8 7 7 7 7 6 6 6 6 6 6 5 6 6 6 5 6 6
3 4 6 6 6 6 6 6 7 7 8 8 9 9 9 9 8 9 9 8 7 7 7 7 7 7 6 6 6 6 6 6 5 5 5 5 5 5 5 5 5 4 5
3 4 4 6 6 6 6 6 7 8 7 8 8 8 8 8 8 9 8 7 7 6 6 6 6 6 5 5 5 5 5 4 4 4 4 4 4 5 4 4 4 4 4
5 5 5 6 6 5 5 7 7 8 8 8 8 8 8 8 9 8 7 6 6 6 5 5 5 5 4 4 4 4 4 4 4 4 4 4 4 4 3 3 3 2 2
4 5 5 6 5 5 5 6 7 8 7 7 8 8 9 9 8 7 6 6 5 5 4 4 4 4 3 3 3 3 3 3 3 3 3 2 2 2 2 1 1 1 1
5 5 4 5 5 5 5 6 6 7 7 7 8 8 8 8 7 6 5 5 4 4 3 3 3 3 2 2 2 2 2 2 2 2 2 1 1 1 1 0 1 1 1
5 4 4 4 4 5 4 5 6 6 6 7 7 7 7 6 6 5 5 4 3 3 2 3 3 2 2 1 1 1 1 1 1 1 1 1 1 1 1 2 2 3 3
5 4 3 4 4 4 4 5 6 6 6 6 6 5 5 4 4 4 4 4 3 2 2 2 2 2 2 1 1 1 2 2 2 2 2 2 2 2 2 3 3 4 5
5 4 4 3 3 3 3 4 5 5 6 5 5 4 4 3 3 3 3 3 3 2 2 2 3 2 1 1 1 1 1 3 3 3 3 3 3 3 3 4 4 5 6
6 4 4 3 3 3 4 4 4 5 5 5 5 4 3 3 3 2 2 2 2 1 1 1 2 2 1 1 1 2 2 2 2 3 4 4 3 4 4 4 5 6 6
7 6 3 3 2 3 4 4 4 4 3 4 4 4 4 3 3 2 2 1 1 0 0 1 1 2 2 2 2 2 2 3 3 3 3 3 4 4 5 6 6 7 7
7 6 5 4 4 3 4 4 4 4 4 3 3 3 3 3 2 2 1 1 1 1 1 1 1 1 2 3 3 4 4 4 4 5 5 5 5 5 5 6 7 7 7
7 7 6 5 4 3 3 3 3 3 3 3 2 2 2 1 1 0 1 1 1 1 1 2 2 2 3 3 4 5 5 5 5 5 6 6 6 6 7 7 7 8 8
7 6 6 5 5 4 2 2 2 2 2 3 3 2 2 1 1 0 0 0 0 2 2 3 3 4 5 5 4 5 5 6 6 6 6 6 7 7 8 8 8 8 9
6 5 5 4 4 3 2 2 2 2 2 2 2 2 1 1 1 2 2 1 2 3 3 3 4 5 6 5 5 5 5 6 6 6 6 6 7 8 9 9 9 9 9
6 6 5 4 3 3 2 2 2 2 1 2 2 2 2 1 2 2 2 3 3 4 4 4 4 5 5 6 6 5 5 6 6 6 7 7 8 8 9 9 9 10 10
6 5 5 4 3 2 2 2 1 1 1 1 1 2 2 2 3 3 3 3 4 4 5 5 5 4 5 6 6 5 5 5 6 6 7 7 8 8 8 9 9 10 10
5 4 4 4 3 3 2 1 1 1 1 1 1 1 2 3 3 4 5 5 5 5 5 5 5 5 5 5 5 5 6 6 6 6 7 8 8 8 8 8 9 9 10
5 4 4 4 4 3 2 2 2 2 2 2 2 3 3 3 4 5 6 6 6 7 7 7 6 6 7 7 6 6 6 7 7 7 7 8 8 9 9 8 8 8 10
7 6 5 4 5 4 4 3 4 4 3 3 3 4 5 5 6 6 7 7 7 7 8 8 8 8 8 8 7 7 8 8 8 8 8 8 9 9 10 9 9 9 10
8 7 6 6 6 6 5 5 5 5 5 5 6 6 7 7 7 7 8 8 8 9 9 9 9 9 9 9 9 9 9 9 10 10 10 10 11 11 11 10 10 11 12
9 9 8 8 7 7 7 7 7 7 7 7 7 8 8 9 9 9 10 10 10 10 10 10 10 10 10 11 11 10 11 11 11 12 11 11 11 12 12 12 12 13 14
Wind_Direction
138 141 132 136 137 138 139 140 137 137 137 138 139 139 137 136 134 133 128 124 120 115 116 111 106 105 106 107 107 106 107 105 102 97 94 91 91 93 97 96 92 90 88
142 135 132 136 136 138 141 140 140 139 141 144 145 142 137 134 132 129 126 123 121 118 113 111 107 103 106 109 106 105 106 104 104 99 93 93 92 96 97 93 93 90 87
142 135 131 138 142 141 145 147 145 146 147 147 146 146 143 139 136 131 129 121 120 119 113 108 103 101 105 108 108 104 100 104 108 102 96 93 92 97 98 96 94 93 88
140 141 133 143 144 146 148 152 151 151 145 143 144 145 145 145 142 134 132 126 121 118 113 110 106 102 104 108 109 105 100 102 104 101 98 93 93 96 97 95 93 93 89
135 137 136 141 144 145 148 154 151 147 145 142 144 145 143 144 144 139 133 128 124 119 114 113 110 105 103 108 109 106 104 102 103 98 96 92 95 96 94 92 89 89 88
124 136 142 138 135 128 134 141 146 144 142 144 144 148 143 143 144 139 133 131 128 124 119 116 114 110 105 108 110 107 106 108 108 102 98 92 92 96 93 93 91 90 89
106 116 117 135 133 127 131 136 141 147 142 147 144 145 144 141 137 136 132 129 132 134 127 122 117 113 112 114 115 113 112 110 115 114 105 94 90 88 87 96 92 90 82
94 104 106 114 126 126 133 135 139 144 145 146 146 148 145 138 135 132 132 128 129 133 132 129 127 119 111 112 114 118 120 117 114 120 112 101 93 85 83 92 98 91 79
95 111 111 110 117 127 133 145 145 146 146 149 149 149 146 141 137 134 134 135 139 135 138 138 133 125 119 112 111 119 128 130 125 131 122 115 103 93 101 97 94 99 80
88 105 111 112 111 122 135 151 154 152 151 152 151 152 148 146 144 145 142 144 146 147 151 162 161 159 154 142 128 135 154 153 145 150 151 136 136 152 185 255 279 264 281
82 99 103 111 115 116 129 149 153 156 153 152 154 155 156 153 154 157 156 158 161 167 174 181 190 192 194 202 206 192 192 197 205 200 205 222 255 248 259 281 288 281 281
75 90 98 106 118 119 128 140 151 159 157 157 158 156 152 151 155 164 170 180 186 194 195 195 198 207 214 222 249 239 224 235 237 244 245 252 265 267 274 285 296 291 281
69 83 87 97 102 106 126 139 145 156 159 160 164 165 163 159 159 165 178 192 200 208 213 212 202 205 211 249 280 273 255 252 253 253 254 258 270 282 282 286 295 299 293
53 62 66 72 90 113 123 127 142 150 158 168 174 173 170 172 173 173 162 169 189 190 190 195 192 199 211 262 292 297 282 260 260 255 264 275 284 294 295 292 298 304 307
48 48 54 58 86 115 131 131 139 147 155 174 180 171 162 167 172 174 171 165 134 88 164 206 212 235 240 254 278 288 288 269 278 269 277 281 288 297 300 296 297 298 304
36 40 47 52 55 93 116 120 134 144 155 168 174 179 171 160 163 189 191 181 156 91 62 2 324 275 274 274 276 281 279 280 277 274 276 281 286 291 295 298 303 303 307
30 33 37 41 48 73 99 108 129 138 142 144 139 172 175 163 181 194 214 205 190 298 316 321 332 321 297 288 283 275 272 277 278 278 278 279 283 288 291 293 299 305 303
25 26 29 29 32 46 67 87 99 116 127 121 116 118 116 115 118 33 28 23 316 310 313 312 323 328 318 307 294 277 274 275 276 282 283 282 282 287 291 291 294 302 303
16 20 22 24 30 41 56 81 86 93 101 111 117 114 93 70 50 23 14 346 329 330 328 317 318 320 319 318 308 295 283 277 281 283 283 283 287 292 292 290 292 297 301
8 11 13 21 26 39 54 63 81 96 94 85 68 54 50 29 2 357 340 338 339 334 329 322 317 316 318 319 311 305 299 290 290 288 293 292 289 292 295 292 291 294 299
360 0 6 9 18 25 29 35 37 62 67 43 38 33 20 6 358 1 338 335 345 344 335 324 317 315 316 319 321 318 315 305 301 298 298 297 294 291 293 296 295 293 296
346 349 357 5 5 1 353 345 336 333 338 337 345 346 349 345 341 339 339 332 333 337 337 329 317 315 314 316 318 320 320 316 310 305 302 302 300 296 296 296 297 297 297
325 332 329 335 342 339 332 318 311 313 306 310 314 323 331 335 333 331 331 328 326 330 329 329 326 317 315 313 311 314 314 317 314 306 308 308 307 303 298 297 295 298 300
307 308 307 304 309 312 309 303 300 302 299 299 300 307 309 314 321 324 328 327 324 322 325 326 327 323 321 318 309 307 308 308 306 306 307 310 311 310 305 296 292 296 297
299 299 300 298 294 294 296 296 292 294 296 296 297 301 301 303 307 313 318 319 319 316 316 316 316 317 318 316 311 307 305 305 304 303 302 303 305 306 303 299 298 296 297
289 290 292 293 291 286 286 289 290 288 290 291 291 297 298 299 302 305 308 310 310 308 307 308 309 309 306 309 306 306 306 302 302 301 299 299 301 304 303 300 299 297 295
Height
5875 5875 5875 5876 5877 5878 5879 5880 5881 5882 5883 5884 5885 5886 5887 5888 5889 5890 5891 5891 5892 5893 5893 5894 5895 5895 5896 5897 5897 5898 5899 5899 5900 5900 5901 5901 5901 5902 5902 5902 5903 5904 5904
5876 5876 5876 5877 5878 5879 5880 5881 5882 5883 5884 5885 5886 5887 5888 5889 5890 5891 5892 5893 5894 5895 5895 5896 5896 5897 5898 5898 5899 5899 5900 5901 5901 5901 5901 5902 5902 5903 5903 5904 5905 5905 5905
5877 5877 5877 5878 5879 5880 5881 5882 5883 5884 5885 5886 5887 5889 5890 5891 5892 5893 5894 5894 5895 5896 5897 5897 5898 5898 5899 5899 5900 5901 5901 5902 5902 5903 5903 5903 5904 5904 5905 5905 5906 5907 5907
5878 5878 5879 5879 5880 5881 5882 5883 5884 5885 5886 5887 5888 5890 5891 5892 5893 5894 5895 5896 5897 5897 5898 5899 5899 5900 5900 5901 5902 5902 5903 5903 5903 5904 5904 5905 5905 5906 5906 5907 5907 5908 5908
5879 5880 5880 5880 5882 5882 5884 5885 5886 5886 5887 5889 5890 5891 5892 5893 5894 5895 5896 5897 5898 5899 5900 5900 5901 5901 5902 5902 5903 5903 5904 5904 5904 5905 5906 5906 5907 5907 5907 5908 5909 5909 5910
5880 5880 5881 5882 5883 5884 5885 5886 5887 5888 5888 5890 5891 5892 5893 5894 5896 5897 5897 5898 5899 5900 5901 5902 5902 5903 5903 5903 5904 5904 5905 5905 5906 5906 5907 5907 5907 5908 5909 5909 5910 5910 5911
5882 5882 5882 5883 5884 5885 5886 5887 5888 5889 5890 5891 5892 5893 5895 5896 5897 5898 5899 5900 5900 5901 5902 5903 5903 5904 5904 5904 5905 5905 5906 5906 5907 5907 5908 5908 5908 5909 5909 5910 5910 5911 5911
5883 5883 5884 5885 5886 5887 5887 5888 5889 5890 5891 5892 5893 5895 5896 5897 5898 5899 5900 5901 5901 5902 5903 5904 5904 5904 5905 5905 5906 5906 5907 5907 5908 5908 5908 5909 5909 5910 5910 5911 5911 5912 5912
5885 5885 5885 5886 5887 5888 5888 5889 5891 5892 5892 5893 5894 5896 5897 5898 5899 5900 5901 5902 5903 5903 5904 5904 5905 5905 5906 5906 5906 5907 5907 5908 5908 5909 5909 5909 5909 5910 5911 5911 5912 5912 5912
5886 5886 5886 5887 5888 5888 5889 5890 5892 5893 5894 5894 5895 5897 5898 5899 5900 5901 5902 5903 5903 5904 5905 5905 5906 5906 5906 5906 5907 5907 5908 5908 5908 5909 5909 5910 5910 5910 5911 5911 5912 5912 5912
5887 5888 5888 5889 5889 5890 5891 5891 5892 5894 5895 5896 5897 5898 5899 5900 5901 5901 5903 5903 5904 5904 5905 5905 5906 5906 5906 5907 5907 5907 5908 5908 5909 5909 5910 5910 5910 5910 5911 5911 5912 5912 5912
5889 5889 5889 5890 5890 5891 5892 5892 5893 5895 5896 5897 5898 5899 5900 5901 5902 5902 5903 5904 5904 5905 5905 5905 5906 5906 5907 5907 5907 5907 5908 5908 5908 5909 5910 5910 5910 5910 5911 5911 5911 5911 5912
5890 5890 5890 5890 5891 5892 5893 5893 5894 5895 5897 5898 5899 5900 5900 5901 5902 5903 5903 5904 5904 5905 5905 5906 5906 5906 5907 5907 5907 5907 5907 5907 5908 5909 5909 5910 5910 5910 5910 5911 5911 5911 5911
5892 5891 5892 5892 5892 5893 5894 5894 5895 5896 5897 5898 5899 5900 5901 5902 5902 5903 5903 5904 5904 5905 5905 5906 5906 5906 5907 5907 5907 5907 5907 5908 5908 5909 5909 5909 5910 5910 5910 5910 5910 5910 5910
5893 5893 5893 5893 5894 5894 5895 5895 5896 5897 5898 5898 5899 5900 5901 5902 5902 5903 5904 5904 5905 5905 5905 5906 5906 5906 5907 5907 5907 5907 5907 5908 5908 5908 5908 5909 5909 5909 5909 5910 5910 5910 5909
5895 5895 5894 5894 5895 5895 5896 5896 5897 5898 5899 5899 5900 5900 5901 5902 5902 5903 5904 5904 5905 5905 5905 5905 5905 5906 5906 5906 5906 5907 5907 5907 5907 5907 5908 5908 5908 5908 5908 5909 5909 5908 5908
5896 5896 5896 5896 5896 5896 5897 5897 5898 5899 5900 5900 5901 5901 5902 5902 5903 5903 5904 5904 5905 5905 5905 5905 5905 5905 5905 5905 5905 5906 5906 5906 5906 5906 5907 5907 5907 5907 5907 5907 5907 5907 5907
5898 5897 5897 5897 5897 5898 5898 5899 5899 5900 5900 5901 5901 5902 5902 5903 5903 5903 5904 5905 5905 5905 5905 5905 5905 5905 5905 5904 5904 5904 5905 5905 5905 5905 5905 5906 5906 5906 5906 5906 5906 5905 5905
5899 5899 5899 5899 5899 5899 5899 5900 5900 5901 5901 5902 5902 5903 5903 5903 5904 5904 5904 5905 5905 5905 5905 5904 5904 5904 5904 5903 5903 5903 5903 5904 5904 5904 5904 5904 5904 5905 5904 5904 5904 5904 5903
5900 5900 5900 5900 5900 5900 5900 5901 5901 5902 5902 5903 5903 5903 5904 5904 5904 5905 5905 5905 5905 5904 5904 5903 5903 5903 5903 5902 5902 5902 5902 5903 5902 5903 5902 5902 5903 5903 5903 5902 5902 5902 5901
5901 5901 5901 5900 5900 5901 5901 5902 5902 5902 5903 5903 5904 5904 5904 5904 5905 5905 5905 5905 5904 5904 5904 5903 5903 5902 5902 5902 5901 5901 5901 5901 5901 5902 5901 5901 5901 5901 5901 5901 5900 5900 5899
5902 5901 5901 5901 5901 5901 5902 5902 5903 5903 5903 5904 5904 5904 5904 5905 5905 5905 5905 5904 5904 5904 5903 5903 5902 5902 5902 5901 5901 5901 5901 5901 5900 5900 5900 5899 5899 5899 5899 5899 5898 5898 5897
5902 5902 5902 5902 5902 5902 5902 5902 5903 5903 5903 5904 5904 5905 5905 5904 5904 5904 5904 5904 5904 5903 5903 5902 5901 5901 5900 5900 5900 5900 5900 5900 5900 5899 5899 5898 5898 5897 5897 5896 5896 5896 5896
5902 5902 5902 5902 5902 5902 5903 5903 5903 5903 5903 5904 5904 5904 5904 5904 5904 5904 5904 5903 5903 5903 5902 5901 5900 5900 5899 5899 5899 5899 5899 5898 5898 5898 5897 5897 5896 5895 5895 5894 5894 5894 5893
5901 5901 5901 5901 5901 5902 5902 5902 5902 5903 5903 5903 5903 5903 5903 5903 5903 5903 5903 5902 5902 5901 5901 5900 5899 5899 5898 5898 5897 5897 5897 5896 5896 5896 5895 5895 5894 5893 5892 5892 5891 5891 5890
5899 5899 5900 5900 5900 5901 5901 5901 5901 5902 5902 5902 5902 5902 5902 5902 5902 5902 5901 5901 5900 5899 5899 5898 5897 5897 5896 5896 5895 5895 5894 5894 5894 5893 5893 5892 5892 5891 5890 5889 5889 5888 5887